Weather History for Le Mars, IA

Change the Weather History Date:

Tuesday, November 27, 2012

  Actual Average Record
Temperature  
Mean Temperature 26 °F -  
Max Temperature 42 °F 34 °F 71 °F (1998)
Min Temperature 10 °F 17 °F -5 °F (1993)
Degree Days  
Heating Degree Days 39    
Moisture  
Dew Point 17 °F    
Average Humidity 68    
Maximum Humidity 86    
Minimum Humidity 42    
Precipitation  
Precipitation 0.00 in - - ()
Sea Level Pressure  
Sea Level Pressure 30.23 in    
Wind  
Wind Speed 6 mph (SW)    
Max Wind Speed 21 mph    
Max Gust Speed 25 mph    
Visibility 10 miles    
Events      
Averages and records for this station are not official NWS values.
T = Trace of Precipitation, MM = Missing Value Source: NWS Daily Summary

Daily Weather History Graph

Daily Weather History Graph

Search for Another Location

Airport:

Trip Planner

Search our weather history database for the weather conditions in past years. The results will help you decide how hot, cold, wet, or windy it might be!

Date:

Astronomy

Nov. 27, 2012 Rise Set
Actual Time 7:31 AM CST 4:53 PM CST
Civil Twilight 7:00 AM CST 5:24 PM CST
Nautical Twilight 6:25 AM CST 5:59 PM CST
Astronomical Twilight 5:51 AM CST 6:33 PM CST
Moon 4:25 PM CST (11/27) 6:37 AM CST (11/27)
Length of Visible Light 10h 24m
Length of Day
9h 21m
Waxing Gibbous, 99% of the Moon is Illuminated
Nov 27
Waxing Gibbous
Nov 28
Full
Dec 6
Last Quarter
Dec 13
New
Dec 19
First Quarter

Hourly Weather History & Observations

Time (CST) Temp. Windchill Dew Point Humidity Pressure Visibility Wind Dir Wind Speed Gust Speed Precip Events Conditions
12:15 AM 12.2 °F - 6.8 °F 79% 30.39 in 10.0 mi Calm Calm - N/A   Clear
12:35 AM 10.4 °F - 5.0 °F 79% 30.38 in 10.0 mi Calm Calm - N/A   Clear
12:55 AM 10.4 °F - 6.8 °F 85% 30.38 in 10.0 mi Calm Calm - N/A   Clear
1:15 AM 10.4 °F - 5.0 °F 79% 30.37 in 10.0 mi Calm Calm - N/A   Clear
1:55 AM 12.2 °F 6.1 °F 6.8 °F 79% 30.37 in 10.0 mi SW 3.5 mph - N/A   Clear
2:15 AM 14.0 °F 6.5 °F 8.6 °F 79% 30.37 in 10.0 mi SSW 4.6 mph - N/A   Clear
2:35 AM 15.8 °F 8.6 °F 8.6 °F 73% 30.36 in 10.0 mi SSW 4.6 mph - N/A   Clear
2:55 AM 15.8 °F 7.2 °F 8.6 °F 73% 30.36 in 10.0 mi South 5.8 mph - N/A   Clear
3:15 AM 15.8 °F 7.2 °F 8.6 °F 73% 30.35 in 10.0 mi SSW 5.8 mph - N/A   Clear
3:35 AM 15.8 °F 7.2 °F 8.6 °F 73% 30.35 in 10.0 mi SSW 5.8 mph - N/A   Clear
3:55 AM 15.8 °F 7.2 °F 8.6 °F 73% 30.33 in 10.0 mi South 5.8 mph - N/A   Clear
4:15 AM 17.6 °F 7.3 °F 10.4 °F 73% 30.32 in 10.0 mi South 8.1 mph - N/A   Clear
4:35 AM 17.6 °F 7.3 °F 10.4 °F 73% 30.30 in 10.0 mi South 8.1 mph - N/A   Clear
4:55 AM 17.6 °F 7.3 °F 10.4 °F 73% 30.30 in 10.0 mi SSW 8.1 mph - N/A   Clear
5:15 AM 17.6 °F 7.3 °F 10.4 °F 73% 30.29 in 10.0 mi South 8.1 mph - N/A   Clear
5:35 AM 17.6 °F 9.3 °F 10.4 °F 73% 30.29 in 10.0 mi SSW 5.8 mph - N/A   Clear
5:55 AM 17.6 °F 8.2 °F 12.2 °F 79% 30.28 in 10.0 mi SSW 6.9 mph - N/A   Clear
6:35 AM 19.4 °F 11.5 °F 12.2 °F 74% 30.27 in 10.0 mi South 5.8 mph - N/A   Clear
6:55 AM 19.4 °F 8.6 °F 12.2 °F 74% 30.26 in 10.0 mi South 9.2 mph - N/A   Clear
7:15 AM 19.4 °F 9.5 °F 12.2 °F 74% 30.26 in 10.0 mi South 8.1 mph - N/A   Clear
7:35 AM 19.4 °F 8.6 °F 14.0 °F 80% 30.25 in 10.0 mi SSW 9.2 mph - N/A   Clear
7:55 AM 19.4 °F 9.5 °F 15.8 °F 86% 30.25 in 10.0 mi South 8.1 mph - N/A   Clear
8:15 AM 21.2 °F 10.9 °F 15.8 °F 80% 30.25 in 10.0 mi South 9.2 mph - N/A   Clear
8:35 AM 21.2 °F 10.1 °F 15.8 °F 80% 30.25 in 10.0 mi South 10.4 mph - N/A   Clear
8:55 AM 24.8 °F 14.0 °F 17.6 °F 74% 30.24 in 10.0 mi South 11.5 mph - N/A   Clear
9:35 AM 24.8 °F 12.9 °F 19.4 °F 80% 30.23 in 10.0 mi South 13.8 mph 19.6 mph N/A   Scattered Clouds
9:55 AM 26.6 °F 14.7 °F 19.4 °F 74% 30.22 in 10.0 mi SSW 15.0 mph - N/A   Scattered Clouds
10:15 AM 28.4 °F 16.2 °F 21.2 °F 74% 30.21 in 10.0 mi SSW 17.3 mph 21.9 mph N/A   Clear
10:35 AM 28.4 °F 17.5 °F 21.2 °F 74% 30.21 in 10.0 mi SSW 13.8 mph 18.4 mph N/A   Clear
10:55 AM 30.2 °F 18.1 °F 21.2 °F 69% 30.20 in 10.0 mi SSW 18.4 mph - N/A   Clear
11:15 AM 33.8 °F 23.5 °F 23.0 °F 65% 30.18 in 10.0 mi SSW 16.1 mph - N/A   Clear
11:35 AM 35.6 °F 25.2 °F 23.0 °F 60% 30.17 in 10.0 mi SSW 18.4 mph - N/A   Clear
11:55 AM 37.4 °F 26.9 °F 23.0 °F 56% 30.15 in 10.0 mi SSW 20.7 mph 25.3 mph N/A   Clear
12:15 PM 39.2 °F 29.6 °F 23.0 °F 52% 30.13 in 10.0 mi SSW 19.6 mph 23.0 mph N/A   Clear
12:35 PM 39.2 °F 29.3 °F 23.0 °F 52% 30.13 in 10.0 mi SW 20.7 mph - N/A   Clear
12:55 PM 41.0 °F 32.8 °F 23.0 °F 49% 30.12 in 10.0 mi SW 16.1 mph - N/A   Scattered Clouds
1:15 PM 41.0 °F 32.2 °F 23.0 °F 49% 30.11 in 10.0 mi SW 18.4 mph 24.2 mph N/A   Clear
1:35 PM 41.0 °F 32.5 °F 23.0 °F 49% 30.11 in 10.0 mi SW 17.3 mph 24.2 mph N/A   Clear
1:55 PM 42.8 °F 36.2 °F 23.0 °F 46% 30.11 in 10.0 mi WSW 12.7 mph - N/A   Clear
2:15 PM 42.8 °F 36.2 °F 21.2 °F 42% 30.11 in 10.0 mi West 12.7 mph 19.6 mph N/A   Clear
2:35 PM 42.8 °F 35.8 °F 21.2 °F 42% 30.10 in 10.0 mi WSW 13.8 mph 20.7 mph N/A   Clear
2:55 PM 42.8 °F 36.6 °F 21.2 °F 42% 30.11 in 10.0 mi WSW 11.5 mph 18.4 mph N/A   Clear
3:15 PM 42.8 °F 37.0 °F 21.2 °F 42% 30.12 in 10.0 mi West 10.4 mph - N/A   Clear
3:35 PM 42.8 °F 37.0 °F 21.2 °F 42% 30.13 in 10.0 mi West 10.4 mph 16.1 mph N/A   Clear
3:55 PM 42.8 °F 37.5 °F 21.2 °F 42% 30.13 in 10.0 mi West 9.2 mph - N/A   Clear
4:15 PM 41.0 °F 35.8 °F 21.2 °F 45% 30.14 in 10.0 mi West 8.1 mph - N/A   Clear
4:35 PM 37.4 °F 32.8 °F 21.2 °F 52% 30.15 in 10.0 mi West 5.8 mph - N/A   Clear
4:55 PM 35.6 °F 31.7 °F 21.2 °F 56% 30.15 in 10.0 mi West 4.6 mph - N/A   Clear
5:15 PM 33.8 °F 29.6 °F 21.2 °F 60% 30.16 in 10.0 mi West 4.6 mph - N/A   Clear
5:35 PM 30.2 °F 26.7 °F 19.4 °F 64% 30.17 in 10.0 mi West 3.5 mph - N/A   Clear
5:55 PM 28.4 °F - 19.4 °F 69% 30.18 in 10.0 mi Calm Calm - N/A   Clear
6:15 PM 30.2 °F 26.7 °F 21.2 °F 69% 30.18 in 10.0 mi WNW 3.5 mph - N/A   Clear
6:35 PM 30.2 °F - 21.2 °F 69% 30.19 in 10.0 mi Calm Calm - N/A   Clear
6:55 PM 28.4 °F 24.6 °F 19.4 °F 69% 30.20 in 10.0 mi West 3.5 mph - N/A   Clear
7:15 PM 28.4 °F - 21.2 °F 74% 30.20 in 10.0 mi Calm Calm - N/A   Clear
7:35 PM 30.2 °F 26.7 °F 21.2 °F 69% 30.21 in 10.0 mi West 3.5 mph - N/A   Clear
7:55 PM 28.4 °F - 21.2 °F 74% 30.21 in 10.0 mi Calm Calm - N/A   Clear
8:15 PM 30.2 °F - 21.2 °F 69% 30.22 in 10.0 mi Calm Calm - N/A   Clear
8:35 PM 30.2 °F - 21.2 °F 69% 30.23 in 10.0 mi Calm Calm - N/A   Clear
8:55 PM 28.4 °F - 21.2 °F 74% 30.24 in 10.0 mi Calm Calm - N/A   Clear
9:15 PM 26.6 °F - 21.2 °F 80% 30.25 in 10.0 mi Calm Calm - N/A   Clear
9:35 PM 30.2 °F - 21.2 °F 69% 30.25 in 10.0 mi Calm Calm - N/A   Clear
9:55 PM 28.4 °F - 21.2 °F 74% 30.26 in 10.0 mi Calm Calm - N/A   Clear
10:15 PM 28.4 °F - 21.2 °F 74% 30.26 in 10.0 mi Calm Calm - N/A   Clear
10:35 PM 24.8 °F - 17.6 °F 74% 30.27 in 10.0 mi Calm Calm - N/A   Clear
10:55 PM 24.8 °F - 19.4 °F 80% 30.27 in 10.0 mi Calm Calm - N/A   Clear
11:15 PM 21.2 °F - 17.6 °F 86% 30.27 in 10.0 mi Calm Calm - N/A   Clear
11:35 PM 21.2 °F - 17.6 °F 86% 30.28 in 10.0 mi Calm Calm - N/A   Clear
11:55 PM 19.4 °F 14.3 °F 15.8 °F 86% 30.28 in 10.0 mi NNE 3.5 mph - N/A   Clear